Wind_Speed
34 35 36 37 38 38 39 40 40 41 42 44 45 46 47 48 47 47 47 47 48 49 48 48 47 45 44 43 42 42 41 41 41 40 39 38 38 37 36 36 35 34 34
32 34 35 36 37 37 38 39 40 40 40 42 43 45 46 47 47 46 46 47 48 49 48 48 47 46 46 45 43 43 43 42 42 42 41 40 39 38 38 37 36 36 35
34 34 35 36 36 36 37 37 39 40 40 41 43 44 45 46 47 45 46 46 47 48 48 48 47 47 47 45 44 44 44 43 42 42 42 41 40 39 39 37 37 36 36
34 34 34 35 35 35 35 36 38 39 39 40 42 43 44 45 46 46 46 45 45 46 47 48 48 48 47 47 45 45 44 44 43 43 42 42 41 41 40 39 38 37 37
33 33 34 34 34 34 35 36 37 39 39 39 41 41 43 44 46 47 47 47 46 45 47 47 47 48 47 46 45 44 44 43 43 43 42 42 42 42 42 41 39 38 38
32 32 32 33 33 33 34 36 37 38 39 39 40 40 41 43 44 45 45 45 45 45 47 46 46 47 47 46 45 44 44 44 43 44 43 43 43 43 43 42 40 39 39
31 32 32 32 33 33 33 35 35 36 37 38 39 39 40 41 43 44 44 44 45 45 46 47 47 47 46 46 46 44 45 45 44 44 44 43 43 43 43 43 42 41 41
31 31 31 31 32 32 33 33 35 35 36 37 38 39 40 41 42 44 44 44 44 43 43 45 46 47 47 47 47 46 45 45 46 45 44 44 43 42 44 44 43 43 42
31 31 31 30 31 31 31 32 34 34 35 36 38 38 39 40 41 43 44 43 43 43 43 43 45 46 47 48 48 48 47 46 45 45 45 45 44 43 44 44 44 44 43
30 30 31 30 30 30 30 31 33 34 35 36 37 38 39 40 41 41 42 41 41 43 44 43 45 47 47 47 48 49 48 47 46 46 46 46 45 45 45 45 45 45 45
30 30 31 31 31 31 31 31 32 34 35 36 37 37 38 39 40 41 41 42 41 43 43 44 45 47 48 48 48 49 49 48 47 47 47 47 46 46 46 46 46 46 46
31 31 31 30 30 31 31 31 32 33 34 35 36 37 38 39 40 41 41 42 43 44 45 45 46 48 49 49 48 49 49 49 49 50 50 50 49 48 47 48 47 47 47
32 31 31 29 29 29 30 31 32 33 34 35 36 37 38 40 40 40 40 42 44 44 46 46 46 46 47 48 49 50 50 50 50 50 51 50 50 49 48 48 48 47 47
31 30 30 29 29 29 30 30 31 32 34 35 35 36 38 39 41 41 41 41 42 43 44 45 46 46 46 47 49 50 50 50 49 49 49 49 50 49 49 48 48 48 47
30 30 30 30 30 30 30 30 30 31 32 33 35 36 38 39 40 41 41 42 43 43 44 45 46 47 47 47 48 49 49 49 49 50 49 49 49 49 49 48 48 49 49
31 31 31 30 30 30 30 30 30 30 31 32 34 36 37 39 39 41 42 41 43 44 44 44 46 47 47 48 49 50 50 49 50 50 50 51 50 50 50 49 49 49 48
31 31 30 30 29 30 30 29 29 29 30 31 33 35 36 37 38 40 42 42 43 44 44 43 45 45 46 46 48 49 49 50 50 50 50 50 51 51 50 50 51 50 49
31 31 31 30 29 29 29 29 29 29 30 31 33 34 34 36 37 39 41 41 42 42 43 43 44 44 44 45 46 48 49 49 49 49 49 50 50 50 50 50 50 50 50
32 31 30 29 29 29 28 28 29 29 29 30 31 33 34 35 37 38 39 40 41 41 42 42 42 43 43 45 45 46 48 48 48 49 48 48 49 49 50 50 51 50 49
31 31 30 29 29 29 29 29 29 29 29 28 29 31 33 34 35 37 38 40 40 40 40 41 41 41 41 43 44 45 46 47 48 48 48 49 49 49 49 50 50 50 50
30 30 29 29 28 28 28 28 28 28 28 28 29 30 32 33 34 36 37 38 39 39 39 40 40 41 41 42 42 43 44 46 47 48 48 48 48 49 50 51 51 50 50
30 29 28 28 27 27 27 27 28 28 28 28 29 29 30 31 33 35 36 36 37 39 39 40 41 41 42 42 41 42 43 45 48 48 49 50 50 50 50 51 51 51 51
29 28 28 27 27 27 27 27 27 28 28 28 29 29 30 31 31 33 34 36 37 38 39 40 40 40 41 42 42 42 42 43 45 47 48 49 50 50 50 51 51 51 51
28 27 27 27 27 27 27 27 27 28 29 29 29 29 29 30 31 31 33 34 36 37 38 39 40 40 41 41 42 42 42 42 42 43 45 46 46 48 49 49 49 50 50
27 27 27 27 26 26 26 26 27 27 28 29 29 29 29 30 30 31 31 32 34 35 35 36 38 39 40 40 41 42 42 42 42 42 43 44 44 45 46 47 47 48 49
26 26 26 27 27 26 26 26 27 27 28 28 28 28 28 28 28 29 30 31 32 33 34 35 37 38 39 39 40 41 41 41 41 42 42 43 43 44 45 46 47 47 48
Wind_Direction
274 272 269 267 267 266 264 262 259 257 253 250 249 249 247 246 245 246 246 246 246 245 244 244 243 243 243 244 246 246 247 247 246 246 247 248 248 250 251 251 252 252 253
274 273 272 270 269 266 264 262 259 256 254 251 250 250 248 246 246 246 246 245 244 244 244 243 242 241 242 243 245 246 247 247 248 248 248 248 248 248 250 251 252 253 253
275 275 273 273 272 267 265 263 259 256 254 252 251 251 250 247 245 245 244 244 242 242 242 242 241 241 242 244 245 246 246 247 247 248 248 248 247 247 248 250 252 253 252
277 278 277 275 273 269 266 263 261 257 255 253 252 251 250 248 246 245 244 242 242 242 242 242 241 241 242 243 245 245 246 246 247 247 247 247 247 247 247 249 251 251 251
279 279 279 278 276 272 268 264 263 260 257 255 253 252 251 248 246 244 243 242 241 242 242 242 240 240 240 242 243 244 244 245 246 246 246 246 247 248 248 248 249 251 252
280 280 279 279 278 276 272 267 265 261 257 256 254 252 251 248 245 243 243 242 242 242 242 242 241 241 240 241 242 243 244 244 245 246 246 247 247 248 248 247 248 251 253
282 281 280 279 279 277 275 270 266 263 259 256 254 251 250 248 245 243 243 243 242 242 242 242 241 240 240 241 242 243 244 243 244 245 245 247 248 248 248 248 249 251 254
284 282 282 281 280 278 277 272 266 263 261 258 254 251 249 248 246 244 244 243 243 242 241 241 240 239 240 241 243 243 243 243 244 244 245 246 248 249 249 249 250 251 253
284 282 281 281 281 279 276 273 267 264 262 259 255 251 249 247 247 246 245 243 243 240 241 242 240 240 240 240 242 244 244 244 244 245 245 246 247 249 250 251 251 252 253
284 282 281 280 279 277 275 273 269 264 262 260 256 252 248 247 247 247 245 245 246 243 243 242 240 240 241 241 242 244 245 245 245 245 246 247 248 249 250 251 252 254 255
285 284 281 279 278 277 274 272 269 266 263 261 257 253 249 248 249 247 246 245 245 245 244 243 241 242 242 243 244 244 244 244 245 246 247 248 249 249 251 252 253 255 256
285 285 284 281 279 278 276 272 269 267 264 261 257 254 251 249 249 248 247 245 246 245 244 244 243 243 243 244 244 245 245 245 246 248 248 249 250 252 253 254 254 256 258
287 285 284 284 279 276 275 273 270 268 265 262 258 255 253 250 249 249 249 248 247 246 246 246 246 246 245 245 245 246 247 247 248 249 249 250 252 253 254 255 255 256 257
289 287 284 283 280 277 274 274 273 269 266 263 259 255 252 251 251 250 249 248 249 249 248 247 247 247 247 246 246 247 247 247 248 249 249 250 252 253 254 255 255 255 256
288 287 286 281 277 275 274 273 272 271 268 264 260 256 254 254 253 252 251 251 251 250 249 249 248 247 247 247 247 247 247 248 248 248 248 249 251 252 253 254 254 255 257
288 287 286 282 278 276 275 273 271 270 269 267 264 260 257 255 255 254 254 255 254 252 251 251 250 248 248 248 247 247 248 248 248 248 250 249 250 252 253 253 254 255 258
288 287 285 282 279 277 275 274 272 271 269 267 265 263 260 257 256 255 255 257 256 254 254 252 251 250 249 248 248 248 248 248 249 249 250 250 250 251 252 254 255 256 257
289 289 285 283 281 280 277 275 275 274 271 268 266 264 262 259 258 256 256 256 256 255 253 252 251 251 250 249 249 249 248 249 248 248 248 249 250 251 252 254 255 256 258
290 290 287 283 282 280 279 277 276 275 273 271 268 265 263 260 258 257 256 255 255 255 253 252 252 251 251 250 250 250 250 249 249 249 249 250 251 252 254 255 255 256 258
289 289 287 284 282 281 279 278 275 275 274 272 270 266 264 262 260 258 256 255 254 254 253 252 252 252 251 251 252 251 251 250 250 250 250 251 252 253 255 256 256 258 260
288 288 288 285 283 281 280 278 276 275 275 276 274 271 268 264 262 260 258 256 255 254 254 253 253 252 253 253 254 253 252 252 251 251 252 253 254 254 256 257 258 259 260
288 287 287 285 284 282 280 279 277 276 276 277 276 274 272 268 265 263 261 259 257 256 255 255 254 254 254 255 256 256 255 255 254 253 253 254 256 257 258 258 259 260 260
288 287 286 285 284 283 282 279 278 277 277 278 278 277 274 272 269 266 264 263 261 261 259 258 257 257 256 258 259 258 259 258 257 256 256 256 257 258 259 259 260 261 261
287 285 285 285 284 283 282 280 280 280 280 281 280 279 276 273 272 271 269 266 264 263 261 260 260 260 260 260 260 260 260 261 260 258 257 257 258 258 258 259 260 261 262
288 286 284 284 284 283 282 281 282 282 282 283 282 281 279 275 273 271 269 267 264 264 263 262 261 260 260 260 260 261 261 262 262 260 259 258 258 258 258 258 259 260 261
286 284 284 284 284 283 282 283 283 284 284 284 282 282 280 277 274 271 269 267 265 265 264 263 262 261 260 260 260 261 261 261 261 261 260 258 258 257 258 259 261 261 261
Height
5657 5655 5654 5654 5653 5652 5652 5652 5653 5655 5658 5661 5664 5667 5671 5676 5680 5685 5689 5693 5696 5700 5705 5709 5714 5718 5724 5728 5733 5737 5740 5743 5747 5751 5754 5757 5760 5762 5765 5767 5770 5772 5774
5647 5646 5644 5643 5642 5641 5641 5641 5642 5644 5646 5649 5652 5655 5659 5663 5667 5672 5676 5680 5684 5688 5692 5697 5702 5707 5712 5717 5722 5726 5730 5733 5737 5741 5744 5747 5751 5753 5756 5759 5761 5764 5766
5638 5636 5635 5633 5632 5631 5630 5631 5631 5633 5635 5637 5640 5643 5646 5650 5655 5659 5664 5668 5672 5676 5681 5686 5691 5696 5701 5706 5711 5715 5719 5723 5726 5730 5734 5737 5741 5744 5747 5749 5752 5755 5757
5628 5627 5625 5623 5622 5621 5620 5621 5621 5622 5624 5626 5628 5631 5635 5639 5643 5647 5652 5656 5661 5665 5669 5674 5680 5685 5691 5696 5700 5704 5708 5712 5716 5719 5723 5727 5731 5734 5737 5740 5743 5745 5748
5620 5617 5615 5614 5612 5611 5611 5611 5611 5612 5613 5615 5618 5620 5624 5627 5631 5635 5640 5645 5649 5654 5658 5663 5668 5674 5680 5685 5689 5693 5697 5702 5706 5709 5713 5716 5720 5723 5727 5731 5733 5736 5738
5611 5609 5607 5605 5603 5602 5601 5601 5601 5602 5603 5605 5607 5609 5613 5616 5620 5625 5629 5633 5637 5642 5647 5652 5657 5663 5669 5674 5679 5683 5687 5691 5695 5699 5702 5706 5709 5713 5716 5720 5723 5726 5728
5603 5601 5598 5596 5595 5593 5592 5592 5592 5593 5593 5595 5597 5600 5603 5606 5610 5614 5618 5622 5626 5631 5636 5642 5647 5652 5657 5663 5668 5672 5676 5680 5685 5689 5692 5696 5699 5702 5705 5709 5712 5715 5717
5595 5593 5590 5588 5586 5585 5584 5583 5583 5584 5584 5586 5588 5590 5593 5596 5600 5604 5608 5612 5615 5620 5625 5631 5636 5641 5646 5651 5656 5661 5665 5669 5673 5677 5681 5685 5688 5691 5695 5698 5701 5704 5707
5587 5585 5582 5580 5578 5577 5576 5575 5575 5576 5576 5577 5579 5582 5584 5587 5591 5594 5598 5601 5605 5610 5615 5620 5625 5630 5635 5640 5645 5650 5654 5658 5662 5666 5670 5674 5677 5680 5684 5686 5690 5693 5696
5579 5577 5575 5573 5571 5569 5568 5567 5566 5567 5568 5569 5571 5573 5575 5578 5581 5584 5588 5592 5596 5600 5605 5609 5614 5619 5624 5629 5633 5638 5642 5647 5651 5655 5659 5663 5666 5669 5672 5675 5678 5680 5684
5572 5569 5567 5565 5563 5561 5560 5559 5559 5559 5560 5561 5562 5564 5566 5568 5571 5575 5578 5582 5586 5590 5594 5598 5603 5608 5613 5617 5622 5626 5630 5635 5639 5643 5647 5651 5654 5657 5660 5663 5666 5668 5671
5563 5561 5559 5557 5555 5553 5552 5551 5551 5551 5552 5552 5554 5555 5557 5559 5562 5565 5568 5571 5575 5579 5583 5587 5592 5596 5601 5605 5610 5614 5618 5622 5627 5631 5635 5638 5642 5645 5648 5650 5653 5656 5659
5555 5553 5550 5548 5547 5545 5544 5544 5543 5543 5543 5544 5545 5546 5548 5550 5552 5555 5558 5561 5565 5569 5572 5576 5580 5584 5588 5593 5597 5601 5605 5609 5614 5618 5622 5626 5629 5632 5635 5638 5641 5643 5646
5547 5545 5543 5540 5539 5537 5536 5536 5535 5535 5535 5535 5536 5537 5539 5541 5543 5545 5548 5551 5555 5558 5561 5565 5568 5572 5575 5579 5583 5588 5592 5596 5600 5604 5608 5612 5616 5619 5622 5624 5627 5630 5632
5539 5537 5535 5533 5531 5530 5528 5528 5527 5526 5526 5527 5528 5529 5530 5532 5534 5536 5539 5541 5544 5547 5550 5553 5556 5559 5563 5567 5570 5574 5578 5582 5586 5590 5594 5598 5602 5605 5608 5611 5614 5617 5619
5531 5529 5527 5525 5523 5522 5520 5519 5519 5518 5518 5519 5519 5520 5521 5523 5524 5526 5529 5531 5533 5536 5539 5541 5544 5547 5550 5554 5558 5561 5565 5569 5573 5576 5580 5585 5588 5592 5595 5598 5601 5603 5606
5523 5520 5518 5516 5515 5513 5512 5511 5510 5510 5510 5510 5510 5511 5512 5513 5515 5516 5518 5520 5522 5524 5526 5529 5531 5534 5538 5541 5544 5548 5551 5555 5559 5563 5567 5571 5575 5578 5582 5584 5587 5590 5592
5515 5512 5510 5508 5507 5505 5504 5503 5502 5502 5501 5501 5502 5502 5503 5504 5505 5506 5508 5509 5511 5513 5515 5517 5519 5522 5525 5528 5531 5534 5537 5541 5545 5549 5553 5557 5561 5564 5568 5571 5574 5576 5579
5506 5504 5502 5500 5498 5497 5496 5495 5494 5494 5493 5492 5492 5493 5493 5494 5495 5496 5497 5499 5500 5501 5503 5505 5508 5510 5513 5515 5518 5520 5524 5528 5532 5535 5539 5543 5547 5551 5554 5557 5560 5563 5565
5497 5495 5493 5492 5490 5488 5488 5487 5486 5486 5485 5484 5483 5483 5484 5484 5485 5486 5487 5488 5489 5490 5492 5494 5496 5499 5501 5503 5505 5507 5511 5515 5519 5523 5526 5530 5533 5537 5539 5543 5546 5549 5551
5489 5487 5485 5483 5482 5480 5479 5479 5478 5477 5477 5476 5475 5474 5474 5474 5475 5475 5476 5477 5478 5479 5481 5483 5485 5487 5489 5491 5493 5495 5498 5501 5505 5509 5513 5516 5520 5523 5525 5528 5531 5535 5537
5480 5478 5477 5475 5474 5472 5471 5470 5470 5469 5468 5467 5466 5465 5465 5464 5464 5465 5465 5466 5467 5468 5470 5472 5474 5476 5478 5479 5481 5483 5485 5488 5492 5496 5499 5503 5505 5508 5511 5513 5516 5519 5521
5472 5470 5469 5467 5466 5465 5463 5462 5461 5460 5460 5458 5457 5456 5455 5455 5454 5454 5455 5455 5456 5457 5458 5460 5462 5464 5465 5467 5469 5471 5473 5475 5478 5482 5485 5488 5491 5493 5496 5499 5501 5503 5505
5464 5462 5461 5459 5458 5457 5456 5454 5453 5452 5451 5450 5449 5447 5446 5446 5445 5445 5445 5445 5445 5446 5447 5449 5450 5452 5454 5455 5457 5459 5461 5463 5465 5468 5471 5474 5476 5479 5482 5484 5486 5488 5490
5456 5454 5453 5452 5450 5449 5448 5447 5445 5444 5443 5442 5440 5439 5437 5436 5436 5435 5435 5435 5435 5435 5436 5438 5439 5440 5443 5444 5445 5447 5449 5451 5453 5455 5457 5460 5462 5465 5468 5470 5472 5473 5475
5448 5446 5445 5444 5443 5441 5440 5439 5437 5436 5435 5433 5431 5430 5429 5428 5427 5426 5426 5425 5425 5425 5426 5426 5427 5429 5430 5432 5433 5435 5436 5438 5440 5442 5444 5447 5449 5452 5454 5457 5458 5460 5461